Zurück zum Katalog

STARLINK-5022

AktivKommunikationVLEO
NORAD 53903·PAYLOAD·🇺🇸 United States

Gestartet Sep 24, 2022 von Cape Canaveral Space Force Station

Loading…

Nächste Überflüge (nächste 24 Stunden)

TLE

AktuellSource: CelesTrak SupGP

Epoche: Sep 14, 2026, 22:12 UTC

1 53903C 22119T   26257.92548611 -.00056860  00000+0 -18282-2 0  2579
2 53903  53.1583 185.7131 0001158  88.0065 166.4227 15.31735072    18

Verfolge STARLINK-5022 in Echtzeit mit AllMySat

Download on the App Store